Location: Carabito
(9.8355°N, 67.9249°W)
Time: 11:42:27
(UTC+00:00)

IUS R/B (1) - Pass Details

Date: 23 May 2024
Orbit: 338 x 34265 km, 28.7° (Epoch: 20 June)

Event Time Altitude Azimuth Distance (km) Brightness Sun altitude
Rises 00:29:05 0° 316° (NW) 2,563 7.0 -23.8°
Reaches altitude 10° 00:30:28 10° 325° (NW) 1,998 6.0 -24.1°
Maximum altitude 00:34:22 42° 39° (NE) 1,632 4.5 -24.9°
Enters shadow 00:37:56 31° 84° (E) 2,887 5.5 -25.7°
